STARLINK-35084

Last updated on Thu Oct 02 2025 00:02:05 GMT+0000 (Coordinated Universal Time)

1 65452U 25194U 25274.48052816 .00145410 00000+0 26183-2 0 9993 2 65452 97.6016 126.8737 0002679 77.5145 282.6405 15.49272468 5651

Satellite not in orbit

STARLINK-35084